SS 3

Satellite information

Favourite Embed

Satellite Type and Status

PAYLOADIN ORBIT

Key statistics

Satellite SS 3 at a glance.

Uptime

17537

Days in orbit

Revolutions

≈ 14.0

Per day

Orbit

LEO

Low Earth Orbit

Inclination

63.3

Latest

Satellite identification and parameters

Extended collection of information and parameters for SS 3.

Object identification

Identified? True

Debris? False

Object name: SS 3

International designator: 1977-112F

Object number (NORAD): 10594

Object ID (CCSDS): 10594

Country: UNITED STATES OF AMERICA (US)

Current information (Y/N): Y

RCS size: LARGE

Orbital parameters

Period: 102.663 minutes

Inclination: 63.3298 deg

SMA: 7262.793 km

Apoapsis: 1251.042 km

Periapsis: 518.275 km

RAAN: 346.675 deg

Eccentricy: 0.05044661

Argument of periapsis: 160.6479 deg

Mean anomaly: 201.4524 deg

Mean motion: 14.02643223 rev/day

Mean motion (dot): 0.00000913 rev/day2

B* drag term: 0.00021905974 1/REarth

Two-line elements (TLE)

Creation date: Dec. 12, 2025, 10:14 a.m.

Reference frame: TEME

Reference center: EARTH

Epoch: Dec. 12, 2025, 6:33 a.m. UTC

TLE line 0: 0 SS 3

TLE line 1: 1 10594U 77112F 25346.27339919 .00000913 00000-0 21906-3 0 9994

TLE line 2: 2 10594 63.3298 346.6750 0504466 160.6479 201.4524 14.02643223341071

Live tracking on map

Real-time ground track for satellite SS 3.

In-orbit conjunctions

A list of the most updated potential collisions computed for object SS 3.

Target Orbit TCA Probability of collision Miss distance Type
DMSP 5D-2 F13 DEB SSO 2025-11-22 12:58:53 0.0001277265 439.0 (m) DEBRIS
NOAA 16 DEB SSO 2025-03-12 18:39:11 0.0001585158 551.0 (m) DEBRIS

Associated space launch

The Parcae satellites were passive ELINT satellites. MSD satellites were dispensers of triplets of ocean surveillance satellites.

SS 3 was lifted into orbit during the mission ‘Atlas F/MSD | Parcae 2A,B,C & MSD 2’, on board a Atlas F/MSD space rocket.

The launch took place on Dec. 8, 1977, 5:45 p.m. from Space Launch Complex 3W.

For more information about the launch, click the button.

Launch to space Atlas F/MSD | Parcae 2A,B,C & MSD 2
Atlas F/MSD | Parcae 2A,B,C & MSD 2

Agency: N/A

Status: Launch Successful

Launch date: Dec. 8, 1977, 5:45 p.m. UTC

Rocket: Atlas F/MSD

Launch pad: Space Launch Complex 3W

Location: Vandenberg SFB, CA, USA

...

Latest news about this satellite

There are no fresh news available about this satellite. Check back as we update our databases every day.


Newsletter sign-up

Weekly statistics, charts and insights to help you stay on top of the space industry.